Time,TemperatureF,DewpointF,PressureIn,WindDirection,WindDirectionDegrees,WindSpeedMPH,WindSpeedGustMPH,Humidity,HourlyPrecipIn,Conditions,Clouds,dailyrainin,SoftwareType,DateUTC
2013-01-28 00:00:00,29.8,28.8,30.03,South,172,0.0,0.0,96,0.00,,,0.00,VWS V14.00,2013-01-28 05:00:00,
2013-01-28 00:01:00,29.8,28.8,30.03,ESE,112,0.0,3.0,96,0.00,,,0.00,VWS V14.00,2013-01-28 05:01:00,
2013-01-28 00:02:00,29.8,28.8,30.03,SE,136,2.0,5.0,96,0.00,,,0.00,VWS V14.00,2013-01-28 05:02:00,
2013-01-28 00:03:00,29.8,28.8,30.03,ESE,118,0.0,5.0,96,0.00,,,0.00,VWS V14.00,2013-01-28 05:03:00,
2013-01-28 00:08:00,29.8,28.8,30.03,SE,146,1.0,5.0,96,0.00,,,0.00,VWS V14.00,2013-01-28 05:08:00,
2013-01-28 00:13:00,29.8,28.8,30.03,SSE,160,2.0,5.0,96,0.00,,,0.00,VWS V14.00,2013-01-28 05:13:00,
2013-01-28 00:18:00,29.8,28.8,30.03,East,96,6.0,8.0,96,0.00,,,0.00,VWS V14.00,2013-01-28 05:18:00,
2013-01-28 00:23:00,29.9,28.9,30.02,SSE,157,1.0,8.0,96,0.00,,,0.00,VWS V14.00,2013-01-28 05:23:00,
2013-01-28 00:28:00,29.9,28.9,30.02,East,88,2.0,8.0,96,0.00,,,0.00,VWS V14.00,2013-01-28 05:28:00,
2013-01-28 00:33:00,29.9,28.9,30.02,SSE,157,0.0,2.0,96,0.00,,,0.00,VWS V14.00,2013-01-28 05:33:00,
2013-01-28 00:38:00,30.0,29.0,30.02,SE,129,0.0,5.0,96,0.00,,,0.00,VWS V14.00,2013-01-28 05:38:00,
2013-01-28 00:44:00,30.0,29.0,30.01,SSE,150,4.0,5.0,96,0.00,,,0.00,VWS V14.00,2013-01-28 05:44:00,
2013-01-28 00:48:00,30.0,29.0,30.01,SSE,148,1.0,5.0,96,0.00,,,0.00,VWS V14.00,2013-01-28 05:48:00,
2013-01-28 00:53:00,30.1,29.1,30.00,SE,140,1.0,5.0,96,0.00,,,0.00,VWS V14.00,2013-01-28 05:53:00,
2013-01-28 00:59:00,30.1,29.1,30.00,South,182,0.0,5.0,96,0.00,,,0.00,VWS V14.00,2013-01-28 05:59:00,
2013-01-28 01:04:00,30.1,29.1,30.00,SE,145,0.0,3.0,96,0.00,,-RA,0.00,VWS V14.00,2013-01-28 06:04:00,
2013-01-28 01:09:00,30.2,29.2,30.00,ESE,119,2.0,4.0,96,0.00,,-RA,0.00,VWS V14.00,2013-01-28 06:09:00,
2013-01-28 01:14:00,30.2,29.2,30.00,SSE,149,1.0,4.0,96,0.00,,-RA,0.00,VWS V14.00,2013-01-28 06:14:00,
2013-01-28 01:19:00,30.3,29.3,30.00,South,171,0.0,4.0,96,0.00,,-RA,0.00,VWS V14.00,2013-01-28 06:19:00,
2013-01-28 01:24:00,30.4,29.4,30.00,South,188,2.0,4.0,96,0.00,,-RA,0.00,VWS V14.00,2013-01-28 06:24:00,
2013-01-28 01:29:00,30.4,29.4,29.99,SE,145,1.0,6.0,96,0.00,,-RA,0.00,VWS V14.00,2013-01-28 06:29:00,
2013-01-28 01:34:00,30.5,29.5,29.99,South,170,0.0,4.0,96,0.00,,-RA,0.00,VWS V14.00,2013-01-28 06:34:00,
2013-01-28 01:39:00,30.6,29.6,29.99,South,180,0.0,4.0,96,0.00,,-RA,0.00,VWS V14.00,2013-01-28 06:39:00,
2013-01-28 01:44:00,30.7,29.7,29.97,SE,146,5.0,5.0,96,0.00,,-RA,0.00,VWS V14.00,2013-01-28 06:44:00,
2013-01-28 01:49:00,30.8,29.8,29.97,South,177,1.0,6.0,96,0.00,,-RA,0.00,VWS V14.00,2013-01-28 06:49:00,
2013-01-28 01:54:00,30.9,30.1,29.97,SSW,194,2.0,6.0,97,0.00,,-RA,0.00,VWS V14.00,2013-01-28 06:54:00,
2013-01-28 01:59:00,31.0,30.2,29.97,SSE,163,2.0,6.0,97,0.00,,-RA,0.00,VWS V14.00,2013-01-28 06:59:00,
2013-01-28 02:04:00,31.1,30.4,29.97,SSE,159,0.0,4.0,97,0.00,,-RA,0.00,VWS V14.00,2013-01-28 07:04:00,
2013-01-28 02:09:00,31.2,30.5,29.97,SSW,205,1.0,4.0,97,0.00,,-RA,0.00,VWS V14.00,2013-01-28 07:09:00,
2013-01-28 02:14:00,31.3,30.5,29.97,South,174,2.0,4.0,97,0.00,,-RA,0.00,VWS V14.00,2013-01-28 07:14:00,
2013-01-28 02:19:00,31.4,30.6,29.97,South,173,0.0,4.0,97,0.00,,-RA,0.00,VWS V14.00,2013-01-28 07:19:00,
2013-01-28 02:25:00,31.6,30.9,29.96,South,174,0.0,4.0,97,0.00,,-RA,0.00,VWS V14.00,2013-01-28 07:25:00,
2013-01-28 02:30:00,31.7,31.0,29.96,South,174,2.0,4.0,97,0.00,,-RA,0.00,VWS V14.00,2013-01-28 07:30:00,
2013-01-28 02:35:00,31.8,31.0,29.96,South,174,1.0,1.0,97,0.00,,,0.00,VWS V14.00,2013-01-28 07:35:00,
2013-01-28 02:40:00,31.9,31.1,29.95,South,174,1.0,3.0,97,0.00,,,0.00,VWS V14.00,2013-01-28 07:40:00,
2013-01-28 02:45:00,32.1,31.4,29.95,South,173,3.0,4.0,97,0.00,,,0.00,VWS V14.00,2013-01-28 07:45:00,
2013-01-28 02:50:00,32.2,31.5,29.95,South,173,1.0,4.0,97,0.00,,,0.00,VWS V14.00,2013-01-28 07:50:00,
2013-01-28 02:55:00,32.3,31.5,29.94,South,173,2.0,4.0,97,0.00,,,0.00,VWS V14.00,2013-01-28 07:55:00,
2013-01-28 03:00:00,32.4,31.6,29.94,South,174,3.0,3.0,97,0.00,,,0.00,VWS V14.00,2013-01-28 08:00:00,
2013-01-28 03:05:00,32.5,31.7,29.93,South,175,2.0,5.0,97,0.00,,,0.00,VWS V14.00,2013-01-28 08:05:00,
2013-01-28 03:10:00,32.6,31.8,29.93,SSE,165,2.0,5.0,97,0.00,,,0.00,VWS V14.00,2013-01-28 08:10:00,
2013-01-28 03:15:00,32.7,31.9,29.93,SSE,165,3.0,5.0,97,0.00,,,0.00,VWS V14.00,2013-01-28 08:15:00,
2013-01-28 03:20:00,32.8,32.0,29.92,South,176,1.0,5.0,97,0.00,,,0.00,VWS V14.00,2013-01-28 08:20:00,
2013-01-28 03:25:00,32.9,32.1,29.92,SSE,157,0.0,5.0,97,0.00,,,0.00,VWS V14.00,2013-01-28 08:25:00,
2013-01-28 03:30:00,32.9,32.1,29.91,South,179,2.0,2.0,97,0.00,,,0.00,VWS V14.00,2013-01-28 08:30:00,
2013-01-28 03:35:00,33.0,32.2,29.91,South,182,2.0,5.0,97,0.00,,,0.00,VWS V14.00,2013-01-28 08:35:00,
2013-01-28 03:41:00,33.1,32.3,29.91,South,182,3.0,5.0,97,0.00,,,0.00,VWS V14.00,2013-01-28 08:41:00,
2013-01-28 03:46:00,33.1,32.6,29.91,South,184,2.0,5.0,98,0.00,,,0.00,VWS V14.00,2013-01-28 08:46:00,
2013-01-28 03:51:00,33.3,32.8,29.91,South,183,2.0,5.0,98,0.00,,,0.00,VWS V14.00,2013-01-28 08:51:00,
2013-01-28 03:56:00,33.3,32.8,29.90,South,184,2.0,5.0,98,0.00,,,0.00,VWS V14.00,2013-01-28 08:56:00,
2013-01-28 04:01:00,33.3,32.8,29.90,South,184,2.0,2.0,98,0.00,,,0.00,VWS V14.00,2013-01-28 09:01:00,
2013-01-28 04:06:00,33.3,32.8,29.89,South,183,2.0,4.0,98,0.00,,,0.00,VWS V14.00,2013-01-28 09:06:00,
2013-01-28 04:11:00,33.3,32.8,29.89,South,183,3.0,4.0,98,0.00,,,0.00,VWS V14.00,2013-01-28 09:11:00,
2013-01-28 04:16:00,33.4,32.9,29.89,South,183,2.0,4.0,98,0.00,,,0.00,VWS V14.00,2013-01-28 09:16:00,
2013-01-28 04:21:00,33.4,32.9,29.90,South,184,3.0,4.0,98,0.00,,,0.00,VWS V14.00,2013-01-28 09:21:00,
2013-01-28 04:26:00,33.5,33.0,29.90,SSW,205,3.0,4.0,98,0.00,,,0.00,VWS V14.00,2013-01-28 09:26:00,
2013-01-28 04:31:00,33.5,33.0,29.90,SSW,205,2.0,3.0,98,0.00,,,0.00,VWS V14.00,2013-01-28 09:31:00,
2013-01-28 04:36:00,33.5,33.0,29.90,SSW,205,0.0,3.0,98,0.00,,,0.00,VWS V14.00,2013-01-28 09:36:00,
2013-01-28 04:41:00,33.5,33.0,29.89,SSW,205,0.0,3.0,98,0.00,,,0.00,VWS V14.00,2013-01-28 09:41:00,
2013-01-28 04:46:00,33.5,33.0,29.89,SSW,205,0.0,3.0,98,0.00,,,0.00,VWS V14.00,2013-01-28 09:46:00,
2013-01-28 04:51:00,33.6,33.1,29.89,SSW,205,1.0,3.0,98,0.00,,,0.00,VWS V14.00,2013-01-28 09:51:00,
2013-01-28 04:56:00,33.7,33.2,29.88,SSW,205,0.0,3.0,98,0.00,,,0.00,VWS V14.00,2013-01-28 09:56:00,
2013-01-28 05:01:00,33.8,33.3,29.88,SSW,205,2.0,2.0,98,0.00,,-RA,0.00,VWS V14.00,2013-01-28 10:01:00,
2013-01-28 05:07:00,33.8,33.3,29.88,SSW,205,2.0,2.0,98,0.00,,-RA,0.00,VWS V14.00,2013-01-28 10:07:00,
2013-01-28 05:12:00,33.9,33.4,29.88,SSW,205,2.0,2.0,98,0.00,,-RA,0.00,VWS V14.00,2013-01-28 10:12:00,
2013-01-28 05:17:00,33.9,33.4,29.87,SSW,205,0.0,2.0,98,0.00,,-RA,0.00,VWS V14.00,2013-01-28 10:17:00,
2013-01-28 05:22:00,33.9,33.4,29.87,SSW,205,0.0,2.0,98,0.00,,-RA,0.00,VWS V14.00,2013-01-28 10:22:00,
2013-01-28 05:27:00,34.0,33.5,29.87,SSW,205,0.0,3.0,98,0.00,,-RA,0.00,VWS V14.00,2013-01-28 10:27:00,
2013-01-28 05:32:00,34.0,33.5,29.87,SSW,205,0.0,0.0,98,0.00,,-RA,0.00,VWS V14.00,2013-01-28 10:32:00,
2013-01-28 05:37:00,33.9,33.4,29.87,SSW,205,0.0,0.0,98,0.00,,-RA,0.00,VWS V14.00,2013-01-28 10:37:00,
2013-01-28 05:42:00,33.9,33.4,29.86,SSW,205,0.0,2.0,98,0.00,,-RA,0.00,VWS V14.00,2013-01-28 10:42:00,
2013-01-28 05:47:00,33.7,33.2,29.85,SSW,205,0.0,2.0,98,0.00,,-RA,0.00,VWS V14.00,2013-01-28 10:47:00,
2013-01-28 05:52:00,33.8,33.3,29.85,SSW,205,0.0,2.0,98,0.00,,-RA,0.00,VWS V14.00,2013-01-28 10:52:00,
2013-01-28 05:57:00,33.9,33.4,29.85,SSW,205,0.0,2.0,98,0.00,,-RA,0.00,VWS V14.00,2013-01-28 10:57:00,
2013-01-28 06:02:00,33.9,33.4,29.85,SSW,205,0.0,0.0,98,0.00,,-RA,0.00,VWS V14.00,2013-01-28 11:02:00,
2013-01-28 06:07:00,33.8,33.3,29.85,SSW,205,0.0,0.0,98,0.00,,-RA,0.00,VWS V14.00,2013-01-28 11:07:00,
2013-01-28 06:12:00,33.8,33.3,29.84,SSW,205,0.0,0.0,98,0.00,,-RA,0.00,VWS V14.00,2013-01-28 11:12:00,
2013-01-28 06:17:00,33.7,33.2,29.84,SSW,205,0.0,0.0,98,0.00,,-RA,0.00,VWS V14.00,2013-01-28 11:17:00,
2013-01-28 06:22:00,33.6,33.1,29.84,SSW,205,0.0,0.0,98,0.00,,-RA,0.00,VWS V14.00,2013-01-28 11:22:00,
2013-01-28 06:27:00,33.5,33.0,29.84,SSW,205,0.0,0.0,98,0.00,,-RA,0.00,VWS V14.00,2013-01-28 11:27:00,
2013-01-28 06:32:00,33.4,32.9,29.84,SSW,205,0.0,0.0,98,0.00,,-RA,0.00,VWS V14.00,2013-01-28 11:32:00,
2013-01-28 06:37:00,33.3,32.8,29.83,SSW,205,0.0,0.0,98,0.00,,-RA,0.00,VWS V14.00,2013-01-28 11:37:00,
2013-01-28 06:42:00,33.3,32.8,29.83,SSW,205,0.0,0.0,98,0.00,,-RA,0.00,VWS V14.00,2013-01-28 11:42:00,
2013-01-28 06:48:00,33.4,32.9,29.83,SSW,205,0.0,0.0,98,0.00,,-RA,0.00,VWS V14.00,2013-01-28 11:48:00,
2013-01-28 06:53:00,33.4,32.9,29.83,SSW,205,0.0,1.0,98,0.00,,-RA,0.00,VWS V14.00,2013-01-28 11:53:00,
2013-01-28 06:58:00,33.6,33.1,29.83,SSW,205,0.0,2.0,98,0.00,,-RA,0.00,VWS V14.00,2013-01-28 11:58:00,
2013-01-28 07:03:00,34.0,33.5,29.82,SSW,205,1.0,2.0,98,0.00,,-RA,0.00,VWS V14.00,2013-01-28 12:03:00,
2013-01-28 07:08:00,34.4,33.9,29.82,SSW,205,1.0,2.0,98,0.00,,-RA,0.00,VWS V14.00,2013-01-28 12:08:00,
2013-01-28 07:13:00,34.4,33.9,29.82,SSW,205,0.0,2.0,98,0.00,,-RA,0.00,VWS V14.00,2013-01-28 12:13:00,
2013-01-28 07:18:00,34.4,33.9,29.82,SSW,205,0.0,2.0,98,0.00,,-RA,0.00,VWS V14.00,2013-01-28 12:18:00,
2013-01-28 07:23:00,34.4,33.9,29.82,SSW,205,0.0,2.0,98,0.00,,-RA,0.00,VWS V14.00,2013-01-28 12:23:00,
2013-01-28 07:28:00,34.4,33.9,29.82,SSW,205,0.0,2.0,98,0.00,,-RA,0.00,VWS V14.00,2013-01-28 12:28:00,
2013-01-28 07:33:00,34.3,33.8,29.82,SSW,205,0.0,0.0,98,0.00,,-RA,0.00,VWS V14.00,2013-01-28 12:33:00,
2013-01-28 07:38:00,34.3,33.8,29.82,SSW,205,0.0,2.0,98,0.00,,-RA,0.00,VWS V14.00,2013-01-28 12:38:00,
2013-01-28 07:43:00,34.3,33.8,29.82,SSW,205,0.0,2.0,98,0.00,,-RA,0.00,VWS V14.00,2013-01-28 12:43:00,
2013-01-28 07:48:00,34.4,33.9,29.82,SSW,205,0.0,2.0,98,0.00,,-RA,0.00,VWS V14.00,2013-01-28 12:48:00,
2013-01-28 07:53:00,34.4,33.9,29.82,SSW,205,0.0,2.0,98,0.00,,-RA,0.00,VWS V14.00,2013-01-28 12:53:00,
2013-01-28 07:59:00,34.4,33.9,29.82,SSW,205,0.0,2.0,98,0.00,,-RA,0.00,VWS V14.00,2013-01-28 12:59:00,
2013-01-28 08:04:00,34.3,33.8,29.82,SSW,205,0.0,0.0,98,0.00,,-RA,0.00,VWS V14.00,2013-01-28 13:04:00,
2013-01-28 08:09:00,34.1,33.6,29.82,SSW,205,0.0,0.0,98,0.00,,-RA,0.00,VWS V14.00,2013-01-28 13:09:00,
2013-01-28 08:14:00,33.9,33.4,29.82,SSW,205,0.0,0.0,98,0.00,,-RA,0.00,VWS V14.00,2013-01-28 13:14:00,
2013-01-28 08:19:00,33.8,33.3,29.82,SSW,205,0.0,0.0,98,0.00,,-RA,0.00,VWS V14.00,2013-01-28 13:19:00,
2013-01-28 08:24:00,33.8,33.3,29.82,SSW,205,0.0,0.0,98,0.00,,-RA,0.00,VWS V14.00,2013-01-28 13:24:00,
2013-01-28 08:29:00,33.9,33.4,29.82,SSW,205,0.0,0.0,98,0.00,,-RA,0.00,VWS V14.00,2013-01-28 13:29:00,
2013-01-28 08:34:00,33.7,33.2,29.81,SSW,205,0.0,0.0,98,0.00,,-RA,0.00,VWS V14.00,2013-01-28 13:34:00,
2013-01-28 08:39:00,33.7,33.2,29.81,SSW,205,0.0,0.0,98,0.00,,-RA,0.00,VWS V14.00,2013-01-28 13:39:00,
2013-01-28 08:44:00,33.9,33.4,29.82,SSW,205,1.0,2.0,98,0.00,,-RA,0.00,VWS V14.00,2013-01-28 13:44:00,
2013-01-28 08:50:00,34.0,33.5,29.81,SSW,205,0.0,2.0,98,0.00,,-RA,0.00,VWS V14.00,2013-01-28 13:50:00,
2013-01-28 08:55:00,34.2,33.7,29.81,SSW,205,0.0,2.0,98,0.00,,-RA,0.00,VWS V14.00,2013-01-28 13:55:00,
2013-01-28 09:00:00,34.5,34.0,29.81,SSW,205,1.0,2.0,98,0.00,,-RA,0.00,VWS V14.00,2013-01-28 14:00:00,
2013-01-28 09:05:00,34.9,34.4,29.81,SSW,205,0.0,2.0,98,0.00,,-RA,0.00,VWS V14.00,2013-01-28 14:05:00,
2013-01-28 09:10:00,35.4,34.9,29.81,SSW,205,0.0,2.0,98,0.00,,-RA,0.00,VWS V14.00,2013-01-28 14:10:00,
2013-01-28 09:15:00,35.7,35.2,29.81,SSW,205,0.0,2.0,98,0.00,,-RA,0.00,VWS V14.00,2013-01-28 14:15:00,
2013-01-28 09:20:00,36.0,35.8,29.82,SSW,205,1.0,2.0,99,0.00,,-RA,0.00,VWS V14.00,2013-01-28 14:20:00,
2013-01-28 09:25:00,36.0,35.5,29.81,SSW,205,0.0,2.0,98,0.00,,-RA,0.00,VWS V14.00,2013-01-28 14:25:00,
2013-01-28 09:30:00,36.1,35.6,29.81,SSW,205,2.0,2.0,98,0.00,,-RA,0.00,VWS V14.00,2013-01-28 14:30:00,
2013-01-28 09:35:00,36.5,36.2,29.81,SSW,205,0.0,3.0,99,0.00,,-RA,0.00,VWS V14.00,2013-01-28 14:35:00,
2013-01-28 09:40:00,36.5,36.2,29.81,SSW,205,0.0,3.0,99,0.00,,-RA,0.00,VWS V14.00,2013-01-28 14:40:00,
2013-01-28 09:45:00,36.9,36.7,29.82,SSW,205,0.0,3.0,99,0.00,,-RA,0.00,VWS V14.00,2013-01-28 14:45:00,
2013-01-28 09:50:00,37.1,36.8,29.82,SW,217,3.0,4.0,99,0.00,,-RA,0.00,VWS V14.00,2013-01-28 14:50:00,
2013-01-28 09:55:00,37.6,37.3,29.82,SW,218,2.0,4.0,99,0.00,,-RA,0.00,VWS V14.00,2013-01-28 14:55:00,
2013-01-28 10:00:00,38.2,37.9,29.82,SW,218,2.0,2.0,99,0.00,,,0.00,VWS V14.00,2013-01-28 15:00:00,
2013-01-28 10:05:00,38.7,38.4,29.82,SW,218,1.0,6.0,99,0.00,,,0.00,VWS V14.00,2013-01-28 15:05:00,
2013-01-28 10:10:00,39.0,38.7,29.81,SW,222,2.0,6.0,99,0.00,,,0.00,VWS V14.00,2013-01-28 15:10:00,
2013-01-28 10:15:00,39.1,38.8,29.81,SW,222,0.0,6.0,99,0.00,,,0.00,VWS V14.00,2013-01-28 15:15:00,
2013-01-28 10:20:00,39.3,39.0,29.81,SW,231,0.0,6.0,99,0.00,,,0.00,VWS V14.00,2013-01-28 15:20:00,
2013-01-28 10:25:00,39.7,39.4,29.81,SW,231,2.0,6.0,99,0.00,,,0.00,VWS V14.00,2013-01-28 15:25:00,
2013-01-28 10:30:00,40.2,39.9,29.82,SW,234,1.0,4.0,99,0.00,,,0.00,VWS V14.00,2013-01-28 15:30:00,
2013-01-28 10:36:00,40.6,40.3,29.81,West,267,0.0,4.0,99,0.00,,,0.00,VWS V14.00,2013-01-28 15:36:00,
2013-01-28 10:41:00,41.0,41.0,29.82,West,265,0.0,4.0,100,0.00,,,0.01,VWS V14.00,2013-01-28 15:41:00,
2013-01-28 10:46:00,41.4,41.1,29.82,West,276,2.0,4.0,99,0.09,,,0.02,VWS V14.00,2013-01-28 15:46:00,
2013-01-28 10:51:00,41.7,41.4,29.82,West,259,2.0,7.0,99,0.11,,,0.03,VWS V14.00,2013-01-28 15:51:00,
2013-01-28 10:56:00,42.0,41.7,29.82,SW,232,2.0,8.0,99,0.17,,,0.04,VWS V14.00,2013-01-28 15:56:00,
2013-01-28 11:01:00,42.0,41.7,29.82,SW,232,4.0,4.0,99,0.20,,,0.06,VWS V14.00,2013-01-28 16:01:00,
2013-01-28 11:06:00,42.1,41.8,29.83,West,269,0.0,6.0,99,0.15,,,0.07,VWS V14.00,2013-01-28 16:06:00,
2013-01-28 11:11:00,42.2,41.9,29.83,West,277,1.0,6.0,99,0.14,,,0.09,VWS V14.00,2013-01-28 16:11:00,
2013-01-28 11:16:00,42.3,42.0,29.83,WNW,286,1.0,6.0,99,0.19,,,0.10,VWS V14.00,2013-01-28 16:16:00,
2013-01-28 11:21:00,42.3,42.0,29.83,West,279,1.0,6.0,99,0.20,,,0.12,VWS V14.00,2013-01-28 16:21:00,
2013-01-28 11:26:00,42.3,42.0,29.84,NW,304,2.0,10.0,99,0.13,,,0.13,VWS V14.00,2013-01-28 16:26:00,
2013-01-28 11:31:00,42.3,42.0,29.84,WNW,288,3.0,3.0,99,0.19,,,0.14,VWS V14.00,2013-01-28 16:31:00,
2013-01-28 11:36:00,42.2,41.9,29.84,NW,318,0.0,6.0,99,0.12,,,0.15,VWS V14.00,2013-01-28 16:36:00,
2013-01-28 11:41:00,42.0,41.7,29.84,WNW,292,3.0,6.0,99,0.16,,,0.16,VWS V14.00,2013-01-28 16:41:00,
2013-01-28 11:46:00,41.8,41.5,29.84,NW,304,1.0,6.0,99,0.11,,,0.17,VWS V14.00,2013-01-28 16:46:00,
2013-01-28 11:51:00,41.5,41.2,29.84,SW,230,3.0,6.0,99,0.13,,,0.18,VWS V14.00,2013-01-28 16:51:00,
2013-01-28 11:56:00,41.3,41.0,29.84,WNW,283,1.0,6.0,99,0.11,,,0.20,VWS V14.00,2013-01-28 16:56:00,
2013-01-28 12:01:00,41.1,40.8,29.84,West,280,0.0,0.0,99,0.12,,,0.20,VWS V14.00,2013-01-28 17:01:00,
2013-01-28 12:06:00,40.9,40.6,29.84,West,273,2.0,3.0,99,0.10,,,0.21,VWS V14.00,2013-01-28 17:06:00,
2013-01-28 12:11:00,40.7,40.4,29.84,NW,307,1.0,12.0,99,0.14,,,0.22,VWS V14.00,2013-01-28 17:11:00,
2013-01-28 12:16:00,40.5,40.2,29.84,WNW,303,1.0,12.0,99,0.10,,,0.23,VWS V14.00,2013-01-28 17:16:00,
2013-01-28 12:21:00,40.3,40.0,29.84,WNW,299,1.0,12.0,99,0.13,,,0.24,VWS V14.00,2013-01-28 17:21:00,
2013-01-28 12:26:00,40.2,39.9,29.84,West,266,2.0,12.0,99,0.10,,,0.25,VWS V14.00,2013-01-28 17:26:00,
2013-01-28 12:32:00,40.1,39.8,29.84,WNW,293,2.0,4.0,99,0.13,,,0.26,VWS V14.00,2013-01-28 17:32:00,
2013-01-28 12:37:00,39.9,39.6,29.84,West,263,3.0,5.0,99,0.15,,,0.28,VWS V14.00,2013-01-28 17:37:00,
2013-01-28 12:42:00,39.8,39.5,29.84,WNW,286,1.0,6.0,99,0.11,,,0.28,VWS V14.00,2013-01-28 17:42:00,
2013-01-28 12:47:00,39.6,39.3,29.85,NW,313,4.0,8.0,99,0.15,,,0.30,VWS V14.00,2013-01-28 17:47:00,
2013-01-28 12:52:00,39.4,39.1,29.85,WNW,298,2.0,8.0,99,0.11,,,0.31,VWS V14.00,2013-01-28 17:52:00,
2013-01-28 12:57:00,39.3,39.0,29.85,West,260,6.0,8.0,99,0.16,,,0.32,VWS V14.00,2013-01-28 17:57:00,
2013-01-28 13:02:00,39.2,38.9,29.85,WNW,288,2.0,4.0,99,0.11,,,0.33,VWS V14.00,2013-01-28 18:02:00,
2013-01-28 13:07:00,39.1,38.8,29.85,WSW,251,2.0,6.0,99,0.17,,,0.34,VWS V14.00,2013-01-28 18:07:00,
2013-01-28 13:12:00,39.0,38.7,29.85,West,260,0.0,6.0,99,0.11,,,0.35,VWS V14.00,2013-01-28 18:12:00,
2013-01-28 13:17:00,38.9,38.6,29.85,WSW,257,2.0,7.0,99,0.16,,,0.36,VWS V14.00,2013-01-28 18:17:00,
2013-01-28 13:22:00,38.7,38.4,29.85,WNW,299,0.0,7.0,99,0.10,,,0.37,VWS V14.00,2013-01-28 18:22:00,
2013-01-28 13:27:00,38.6,38.3,29.85,WNW,283,1.0,7.0,99,0.16,,,0.38,VWS V14.00,2013-01-28 18:27:00,
2013-01-28 13:32:00,38.6,38.3,29.85,SW,218,0.0,7.0,99,0.08,,,0.39,VWS V14.00,2013-01-28 18:32:00,
2013-01-28 13:37:00,38.6,38.3,29.85,WNW,283,0.0,7.0,99,0.15,,,0.40,VWS V14.00,2013-01-28 18:37:00,
2013-01-28 13:42:00,38.5,38.2,29.85,West,269,4.0,7.0,99,0.09,,,0.41,VWS V14.00,2013-01-28 18:42:00,
2013-01-28 13:47:00,38.3,38.0,29.85,WSW,254,1.0,7.0,99,0.16,,,0.42,VWS V14.00,2013-01-28 18:47:00,
2013-01-28 13:52:00,38.3,38.0,29.85,WNW,286,2.0,7.0,99,0.09,,,0.43,VWS V14.00,2013-01-28 18:52:00,
2013-01-28 13:57:00,38.2,37.9,29.85,NW,313,0.0,7.0,99,0.15,,,0.44,VWS V14.00,2013-01-28 18:57:00,
2013-01-28 14:02:00,38.2,37.9,29.85,WNW,300,0.0,3.0,99,0.09,,,0.45,VWS V14.00,2013-01-28 19:02:00,
2013-01-28 14:07:00,38.2,37.9,29.85,WNW,302,0.0,3.0,99,0.15,,,0.46,VWS V14.00,2013-01-28 19:07:00,
2013-01-28 14:12:00,38.0,37.7,29.85,WNW,296,0.0,4.0,99,0.10,,,0.46,VWS V14.00,2013-01-28 19:12:00,
2013-01-28 14:18:00,38.0,37.7,29.85,WNW,300,2.0,5.0,99,0.15,,,0.48,VWS V14.00,2013-01-28 19:18:00,
2013-01-28 14:22:00,37.8,37.5,29.86,West,264,2.0,8.0,99,0.12,,,0.48,VWS V14.00,2013-01-28 19:22:00,
2013-01-28 14:27:00,37.7,37.5,29.86,West,277,1.0,8.0,99,0.09,,,0.50,VWS V14.00,2013-01-28 19:27:00,
2013-01-28 14:33:00,37.7,37.5,29.86,WNW,295,0.0,3.0,99,0.12,,,0.50,VWS V14.00,2013-01-28 19:33:00,
2013-01-28 14:38:00,37.7,37.5,29.86,WNW,297,0.0,3.0,99,0.10,,,0.52,VWS V14.00,2013-01-28 19:38:00,
2013-01-28 14:43:00,37.7,37.5,29.86,WNW,303,1.0,3.0,99,0.13,,,0.52,VWS V14.00,2013-01-28 19:43:00,
2013-01-28 14:48:00,37.6,37.3,29.86,WNW,283,2.0,5.0,99,0.08,,,0.53,VWS V14.00,2013-01-28 19:48:00,
2013-01-28 14:53:00,37.5,37.2,29.86,WNW,283,0.0,5.0,99,0.15,,,0.54,VWS V14.00,2013-01-28 19:53:00,
2013-01-28 14:58:00,37.5,37.2,29.87,WNW,284,0.0,5.0,99,0.09,,,0.55,VWS V14.00,2013-01-28 19:58:00,
2013-01-28 15:03:00,37.4,37.2,29.87,West,272,0.0,3.0,99,0.14,,OVC006,0.56,VWS V14.00,2013-01-28 20:03:00,
2013-01-28 15:08:00,37.2,37.0,29.88,WNW,294,2.0,6.0,99,0.08,,OVC006,0.57,VWS V14.00,2013-01-28 20:08:00,
2013-01-28 15:13:00,37.1,36.8,29.88,WNW,301,0.0,6.0,99,0.08,,OVC006,0.58,VWS V14.00,2013-01-28 20:13:00,
2013-01-28 15:18:00,37.1,36.8,29.88,WNW,300,2.0,6.0,99,0.12,,OVC006,0.58,VWS V14.00,2013-01-28 20:18:00,
2013-01-28 15:23:00,37.1,36.8,29.88,WNW,291,0.0,7.0,99,0.07,,OVC006,0.59,VWS V14.00,2013-01-28 20:23:00,
2013-01-28 15:28:00,37.0,36.8,29.88,WNW,294,0.0,7.0,99,0.10,,OVC006,0.60,VWS V14.00,2013-01-28 20:28:00,
2013-01-28 15:33:00,37.0,36.8,29.88,NNW,337,2.0,4.0,99,0.10,,OVC006,0.60,VWS V14.00,2013-01-28 20:33:00,
2013-01-28 15:38:00,37.0,36.8,29.89,NW,313,2.0,4.0,99,0.05,,OVC006,0.60,VWS V14.00,2013-01-28 20:38:00,
2013-01-28 15:43:00,37.0,36.8,29.89,WSW,250,3.0,8.0,99,0.05,,OVC006,0.61,VWS V14.00,2013-01-28 20:43:00,
2013-01-28 15:48:00,37.0,36.8,29.89,West,269,0.0,8.0,99,0.05,,OVC006,0.61,VWS V14.00,2013-01-28 20:48:00,
2013-01-28 15:53:00,37.0,36.8,29.89,South,186,0.0,8.0,99,0.06,,OVC006,0.62,VWS V14.00,2013-01-28 20:53:00,
2013-01-28 15:58:00,37.0,36.8,29.89,West,259,0.0,8.0,99,0.06,,OVC006,0.62,VWS V14.00,2013-01-28 20:58:00,
2013-01-28 16:03:00,37.0,36.8,29.90,WSW,254,0.0,2.0,99,0.04,,OVC016,0.62,VWS V14.00,2013-01-28 21:03:00,
2013-01-28 16:08:00,37.0,36.8,29.90,WSW,256,0.0,3.0,99,0.00,,OVC016,0.62,VWS V14.00,2013-01-28 21:08:00,
2013-01-28 16:13:00,37.1,36.8,29.91,WSW,256,0.0,3.0,99,0.00,,OVC016,0.62,VWS V14.00,2013-01-28 21:13:00,
2013-01-28 16:18:00,37.0,36.5,29.91,WSW,257,1.0,3.0,98,0.00,,OVC016,0.62,VWS V14.00,2013-01-28 21:18:00,
2013-01-28 16:24:00,36.9,36.4,29.91,WSW,257,1.0,3.0,98,0.00,,OVC016,0.62,VWS V14.00,2013-01-28 21:24:00,
2013-01-28 16:29:00,36.9,36.4,29.92,WSW,258,1.0,4.0,98,0.00,,OVC016,0.63,VWS V14.00,2013-01-28 21:29:00,
2013-01-28 16:34:00,36.8,36.3,29.92,West,263,0.0,1.0,98,0.00,,OVC016,0.63,VWS V14.00,2013-01-28 21:34:00,
2013-01-28 16:39:00,36.7,36.2,29.92,WNW,296,0.0,4.0,98,0.00,,OVC016,0.63,VWS V14.00,2013-01-28 21:39:00,
2013-01-28 16:44:00,36.7,36.2,29.92,SW,225,0.0,4.0,98,0.00,,OVC016,0.63,VWS V14.00,2013-01-28 21:44:00,
2013-01-28 16:49:00,36.6,36.1,29.92,WSW,240,2.0,4.0,98,0.00,,OVC016,0.63,VWS V14.00,2013-01-28 21:49:00,
2013-01-28 16:54:00,36.5,36.0,29.92,WNW,300,1.0,4.0,98,0.00,,OVC016,0.63,VWS V14.00,2013-01-28 21:54:00,
2013-01-28 16:59:00,36.5,36.0,29.92,WNW,300,0.0,4.0,98,0.00,,OVC016,0.63,VWS V14.00,2013-01-28 21:59:00,
2013-01-28 17:04:00,36.4,35.9,29.93,WNW,303,2.0,2.0,98,0.00,,OVC015,0.63,VWS V14.00,2013-01-28 22:04:00,
2013-01-28 17:09:00,36.4,35.9,29.93,WNW,303,0.0,2.0,98,0.00,,OVC015,0.63,VWS V14.00,2013-01-28 22:09:00,
2013-01-28 17:14:00,36.3,35.8,29.93,WSW,243,0.0,3.0,98,0.00,,OVC015,0.63,VWS V14.00,2013-01-28 22:14:00,
2013-01-28 17:19:00,36.2,35.4,29.93,WSW,242,0.0,3.0,97,0.00,,OVC015,0.63,VWS V14.00,2013-01-28 22:19:00,
2013-01-28 17:24:00,36.1,35.3,29.93,WSW,243,0.0,3.0,97,0.00,,OVC015,0.63,VWS V14.00,2013-01-28 22:24:00,
2013-01-28 17:29:00,36.0,35.2,29.94,WSW,243,0.0,3.0,97,0.00,,OVC015,0.63,VWS V14.00,2013-01-28 22:29:00,
2013-01-28 17:34:00,35.9,35.1,29.93,WSW,251,0.0,3.0,97,0.00,,OVC015,0.63,VWS V14.00,2013-01-28 22:34:00,
2013-01-28 17:39:00,35.8,35.0,29.94,WSW,252,0.0,3.0,97,0.00,,OVC015,0.63,VWS V14.00,2013-01-28 22:39:00,
2013-01-28 17:44:00,35.8,35.0,29.94,WSW,252,0.0,3.0,97,0.00,,OVC015,0.63,VWS V14.00,2013-01-28 22:44:00,
2013-01-28 17:50:00,35.7,34.9,29.94,WSW,252,0.0,3.0,97,0.00,,OVC015,0.63,VWS V14.00,2013-01-28 22:50:00,
2013-01-28 17:55:00,35.6,34.8,29.95,WSW,252,0.0,3.0,97,0.00,,OVC015,0.63,VWS V14.00,2013-01-28 22:55:00,
2013-01-28 18:00:00,35.5,34.7,29.95,WSW,252,0.0,3.0,97,0.00,,OVC015,0.63,VWS V14.00,2013-01-28 23:00:00,
2013-01-28 18:05:00,35.5,34.7,29.95,WSW,252,0.0,2.0,97,0.00,,OVC012,0.64,VWS V14.00,2013-01-28 23:05:00,
2013-01-28 18:10:00,35.4,34.6,29.95,WSW,252,0.0,2.0,97,0.00,,OVC012,0.64,VWS V14.00,2013-01-28 23:10:00,
2013-01-28 18:15:00,35.3,34.5,29.95,WSW,252,0.0,2.0,97,0.00,,OVC012,0.64,VWS V14.00,2013-01-28 23:15:00,
2013-01-28 18:20:00,35.3,34.5,29.95,WSW,252,0.0,2.0,97,0.00,,OVC012,0.64,VWS V14.00,2013-01-28 23:20:00,
2013-01-28 18:25:00,35.1,34.3,29.95,WSW,252,0.0,2.0,97,0.00,,OVC012,0.64,VWS V14.00,2013-01-28 23:25:00,
2013-01-28 18:30:00,35.0,34.2,29.96,WSW,252,0.0,2.0,97,0.00,,OVC012,0.64,VWS V14.00,2013-01-28 23:30:00,
2013-01-28 18:35:00,34.9,34.1,29.96,WSW,252,0.0,0.0,97,0.00,,OVC012,0.64,VWS V14.00,2013-01-28 23:35:00,
2013-01-28 18:40:00,34.8,34.0,29.97,WSW,252,0.0,0.0,97,0.00,,OVC012,0.64,VWS V14.00,2013-01-28 23:40:00,
2013-01-28 18:45:00,34.7,33.9,29.97,WSW,252,0.0,0.0,97,0.00,,OVC012,0.64,VWS V14.00,2013-01-28 23:45:00,
2013-01-28 18:50:00,34.6,33.8,29.97,WSW,252,0.0,0.0,97,0.00,,OVC012,0.64,VWS V14.00,2013-01-28 23:50:00,
2013-01-28 18:55:00,34.4,33.6,29.98,WSW,252,0.0,0.0,97,0.00,,OVC012,0.64,VWS V14.00,2013-01-28 23:55:00,
2013-01-28 19:00:00,34.4,33.6,29.98,WSW,252,0.0,0.0,97,0.00,,OVC012,0.64,VWS V14.00,2013-01-29 00:00:00,
2013-01-28 19:05:00,34.4,33.6,29.98,WSW,253,1.0,2.0,97,0.00,,OVC012,0.64,VWS V14.00,2013-01-29 00:05:00,
2013-01-28 19:10:00,34.4,33.6,29.98,WSW,253,0.0,2.0,97,0.00,,OVC012,0.64,VWS V14.00,2013-01-29 00:10:00,
2013-01-28 19:15:00,34.4,33.6,29.98,WSW,253,0.0,2.0,97,0.00,,OVC012,0.64,VWS V14.00,2013-01-29 00:15:00,
2013-01-28 19:20:00,34.4,33.6,29.98,WSW,253,0.0,2.0,97,0.00,,OVC012,0.64,VWS V14.00,2013-01-29 00:20:00,
2013-01-28 19:25:00,34.4,33.6,29.98,WSW,253,0.0,2.0,97,0.00,,OVC012,0.64,VWS V14.00,2013-01-29 00:25:00,
2013-01-28 19:30:00,34.4,33.6,29.98,WSW,253,0.0,0.0,97,0.00,,OVC012,0.64,VWS V14.00,2013-01-29 00:30:00,
2013-01-28 19:35:00,34.4,33.6,29.98,WSW,253,0.0,1.0,97,0.00,,OVC012,0.64,VWS V14.00,2013-01-29 00:35:00,
2013-01-28 19:40:00,34.4,33.6,29.98,WSW,253,0.0,1.0,97,0.00,,OVC012,0.64,VWS V14.00,2013-01-29 00:40:00,
2013-01-28 19:45:00,34.3,33.5,29.98,WSW,253,0.0,1.0,97,0.00,,OVC012,0.64,VWS V14.00,2013-01-29 00:45:00,
2013-01-28 19:50:00,34.2,33.4,29.98,WSW,253,0.0,1.0,97,0.00,,OVC012,0.64,VWS V14.00,2013-01-29 00:50:00,
2013-01-28 19:55:00,34.1,33.3,29.98,WSW,253,0.0,1.0,97,0.00,,OVC012,0.64,VWS V14.00,2013-01-29 00:55:00,
2013-01-28 20:00:00,34.0,33.2,29.98,WSW,253,0.0,0.0,97,0.00,,OVC012,0.64,VWS V14.00,2013-01-29 01:00:00,
2013-01-28 20:05:00,33.9,33.1,29.98,WSW,253,0.0,0.0,97,0.00,,OVC012,0.64,VWS V14.00,2013-01-29 01:05:00,
2013-01-28 20:10:00,33.8,33.0,29.98,WSW,253,0.0,0.0,97,0.00,,OVC012,0.64,VWS V14.00,2013-01-29 01:10:00,
2013-01-28 20:16:00,33.7,32.9,29.98,WSW,253,0.0,0.0,97,0.00,,OVC012,0.64,VWS V14.00,2013-01-29 01:16:00,
2013-01-28 20:21:00,33.6,32.8,29.98,WSW,253,0.0,0.0,97,0.00,,OVC012,0.64,VWS V14.00,2013-01-29 01:21:00,
2013-01-28 20:26:00,33.5,32.7,29.98,WSW,253,0.0,0.0,97,0.00,,OVC012,0.64,VWS V14.00,2013-01-29 01:26:00,
2013-01-28 20:31:00,33.4,32.6,29.98,WSW,253,0.0,0.0,97,0.00,,OVC012,0.64,VWS V14.00,2013-01-29 01:31:00,
2013-01-28 20:36:00,33.4,32.6,29.98,WSW,253,0.0,0.0,97,0.00,,OVC012,0.64,VWS V14.00,2013-01-29 01:36:00,
2013-01-28 20:41:00,33.3,32.5,29.98,WSW,253,0.0,0.0,97,0.00,,OVC012,0.64,VWS V14.00,2013-01-29 01:41:00,
2013-01-28 20:46:00,33.2,32.4,29.98,WSW,253,0.0,0.0,97,0.00,,OVC012,0.64,VWS V14.00,2013-01-29 01:46:00,
2013-01-28 20:51:00,33.2,32.4,29.98,WSW,253,0.0,0.0,97,0.00,,OVC012,0.64,VWS V14.00,2013-01-29 01:51:00,
2013-01-28 20:56:00,33.1,32.3,29.98,WSW,253,0.0,0.0,97,0.00,,OVC012,0.64,VWS V14.00,2013-01-29 01:56:00,
2013-01-28 21:01:00,33.0,32.2,29.98,WSW,253,0.0,0.0,97,0.00,,BKN010,0.64,VWS V14.00,2013-01-29 02:01:00,
2013-01-28 21:06:00,33.0,32.2,29.97,WSW,253,0.0,0.0,97,0.00,,BKN010,0.64,VWS V14.00,2013-01-29 02:06:00,
2013-01-28 21:11:00,32.9,32.1,29.98,WSW,253,0.0,0.0,97,0.00,,BKN010,0.64,VWS V14.00,2013-01-29 02:11:00,
2013-01-28 21:16:00,32.8,32.0,29.98,WSW,253,0.0,0.0,97,0.00,,BKN010,0.64,VWS V14.00,2013-01-29 02:16:00,
2013-01-28 21:21:00,32.7,31.9,29.98,WSW,253,0.0,0.0,97,0.00,,BKN010,0.64,VWS V14.00,2013-01-29 02:21:00,
2013-01-28 21:26:00,32.6,31.8,29.98,WSW,253,0.0,0.0,97,0.00,,BKN010,0.64,VWS V14.00,2013-01-29 02:26:00,
2013-01-28 21:31:00,32.6,31.8,29.98,WSW,253,0.0,0.0,97,0.00,,BKN010,0.64,VWS V14.00,2013-01-29 02:31:00,
2013-01-28 21:36:00,32.4,31.6,29.98,WSW,253,0.0,0.0,97,0.00,,BKN010,0.64,VWS V14.00,2013-01-29 02:36:00,
2013-01-28 21:41:00,32.2,31.5,29.98,WSW,253,2.0,2.0,97,0.00,,BKN010,0.64,VWS V14.00,2013-01-29 02:41:00,
2013-01-28 21:46:00,31.9,31.1,29.99,WSW,253,0.0,2.0,97,0.00,,BKN010,0.64,VWS V14.00,2013-01-29 02:46:00,
2013-01-28 21:51:00,31.8,31.0,29.98,WSW,253,0.0,2.0,97,0.00,,BKN010,0.64,VWS V14.00,2013-01-29 02:51:00,
2013-01-28 21:56:00,31.8,31.0,29.98,WSW,253,0.0,2.0,97,0.00,,BKN010,0.64,VWS V14.00,2013-01-29 02:56:00,
2013-01-28 22:01:00,31.7,31.0,29.98,WSW,253,0.0,0.0,97,0.00,,OVC010,0.64,VWS V14.00,2013-01-29 03:01:00,
2013-01-28 22:06:00,31.6,30.9,29.99,WSW,253,0.0,0.0,97,0.00,,OVC010,0.64,VWS V14.00,2013-01-29 03:06:00,
2013-01-28 22:12:00,31.6,30.9,29.99,WSW,253,0.0,0.0,97,0.00,,OVC010,0.64,VWS V14.00,2013-01-29 03:12:00,
2013-01-28 22:17:00,31.7,31.0,29.99,WSW,253,0.0,1.0,97,0.00,,OVC010,0.64,VWS V14.00,2013-01-29 03:17:00,
2013-01-28 22:22:00,31.8,31.0,29.98,WSW,253,0.0,1.0,97,0.00,,OVC010,0.64,VWS V14.00,2013-01-29 03:22:00,
2013-01-28 22:27:00,31.9,31.1,29.99,WSW,253,0.0,1.0,97,0.00,,OVC010,0.64,VWS V14.00,2013-01-29 03:27:00,
2013-01-28 22:32:00,32.2,31.5,29.99,WSW,253,0.0,0.0,97,0.00,,OVC010,0.64,VWS V14.00,2013-01-29 03:32:00,
2013-01-28 22:37:00,32.3,31.5,29.99,WSW,253,0.0,0.0,97,0.00,,OVC010,0.64,VWS V14.00,2013-01-29 03:37:00,
2013-01-28 22:42:00,32.3,31.5,29.99,WSW,253,0.0,0.0,97,0.00,,OVC010,0.64,VWS V14.00,2013-01-29 03:42:00,
2013-01-28 22:47:00,32.3,31.5,29.99,WSW,253,0.0,0.0,97,0.00,,OVC010,0.64,VWS V14.00,2013-01-29 03:47:00,
2013-01-28 22:52:00,32.3,31.5,29.99,WSW,253,0.0,0.0,97,0.00,,OVC010,0.64,VWS V14.00,2013-01-29 03:52:00,
2013-01-28 22:57:00,32.2,31.5,29.98,WSW,253,0.0,0.0,97,0.00,,OVC010,0.64,VWS V14.00,2013-01-29 03:57:00,
2013-01-28 23:02:00,32.2,31.5,29.98,WSW,253,0.0,0.0,97,0.00,,OVC010,0.64,VWS V14.00,2013-01-29 04:02:00,
2013-01-28 23:07:00,32.1,31.4,29.98,WSW,253,0.0,0.0,97,0.00,,OVC010,0.64,VWS V14.00,2013-01-29 04:07:00,
2013-01-28 23:12:00,32.1,31.4,29.98,WSW,253,0.0,0.0,97,0.00,,OVC010,0.64,VWS V14.00,2013-01-29 04:12:00,
2013-01-28 23:17:00,32.0,31.2,29.97,WSW,253,0.0,0.0,97,0.00,,OVC010,0.64,VWS V14.00,2013-01-29 04:17:00,
2013-01-28 23:22:00,31.9,31.1,29.97,WSW,253,0.0,0.0,97,0.00,,OVC010,0.64,VWS V14.00,2013-01-29 04:22:00,
2013-01-28 23:27:00,31.8,31.0,29.97,WSW,253,0.0,0.0,97,0.00,,OVC010,0.64,VWS V14.00,2013-01-29 04:27:00,
2013-01-28 23:32:00,31.7,31.0,29.97,WSW,253,0.0,1.0,97,0.00,,OVC010,0.64,VWS V14.00,2013-01-29 04:32:00,
2013-01-28 23:37:00,31.4,30.6,29.97,WSW,253,0.0,1.0,97,0.00,,OVC010,0.64,VWS V14.00,2013-01-29 04:37:00,
2013-01-28 23:42:00,31.2,30.5,29.97,WSW,253,0.0,1.0,97,0.00,,OVC010,0.64,VWS V14.00,2013-01-29 04:42:00,
2013-01-28 23:48:00,31.2,30.5,29.96,WSW,253,0.0,1.0,97,0.00,,OVC010,0.64,VWS V14.00,2013-01-29 04:48:00,
2013-01-28 23:53:00,31.1,30.4,29.96,WSW,253,0.0,1.0,97,0.00,,OVC010,0.64,VWS V14.00,2013-01-29 04:53:00,
2013-01-28 23:58:00,31.0,30.2,29.95,WSW,253,0.0,1.0,97,0.00,,OVC010,0.64,VWS V14.00,2013-01-29 04:58:00,